Regional Weather Roundup
Issued by NWS

Home | Current Version | Previous Version | Text Only | Print | Product List | Glossary Off
Versions: 1 2 3 4 5 6 7 8 9 10 11 12 13 14 15 16 17 18 19 20 21 22 23 24 25 26 27 28 29 30 31 32 33 34 35 36 37 38 39 40 41 42 43 44 45 46 47 48 49 50

085
ASUS45 KPSR 240010
RWRAZ

ARIZONA HOURLY REGIONAL WEATHER ROUNDUP
NATIONAL WEATHER SERVICE PHOENIX AZ
500 PM MST MON JAN 23 2017

NOTE: FAIR INDICATES FEW OR NO CLOUDS BELOW 12,000 FEET WITH NO
SIGNIFICANT WEATHER AND/OR OBSTRUCTIONS TO VISIBILITY.

AZZ001>003-036-240100-
NORTHWEST ARIZONA

CITY           SKY/WX    TMP DP  RH WIND       PRES   REMARKS
BULLHEAD CITY  MOCLDY    55  37  50 SW18G26   29.74S
KINGMAN        LGT RAIN  37  34  89 SW13      29.74R WCI  29
6HR MIN TEMP:  37; 6HR MAX TEMP:  48; 6HR PCP:  0.21;

$$

AZZ004>008-015-016-018-240100-
NORTH CENTRAL ARIZONA

CITY           SKY/WX    TMP DP  RH WIND       PRES   REMARKS
GRAND CANYON   SNOW      29  28  96 SW17      29.67S VSB 1/2 WCI  17
6HR MIN TEMP:  29; 6HR MAX TEMP:  34; 6HR PCP:  0.15;

WILLIAMS       MIX PCPN  30  27  86 SW16G31   29.69S WCI  19
PRESCOTT       LGT RAIN  37  33  85 SW12      29.74S WCI  29
6HR MIN TEMP:  35; 6HR MAX TEMP:  41; 6HR PCP:  0.16;

FLAGSTAFF      LGT SNOW  28  26  92 SW15G26   29.68R VSB 3/4 WCI  16
6HR MIN TEMP:  28; 6HR MAX TEMP:  32; 6HR PCP:  0.19;

PAYSON         MIX PCPN  37  36  93 SW14G28   29.77F WCI  29
PAGE           CLOUDY    41  26  55 NW6       29.65S
6HR MIN TEMP:  37; 6HR MAX TEMP:  49; 6HR PCP:  0.11;

$$

AZZ009>014-017-240100-
NORTHEAST ARIZONA

CITY           SKY/WX    TMP DP  RH WIND       PRES   REMARKS
WINSLOW        CLOUDY    42  38  85 SW14      29.70F
6HR MIN TEMP:  41; 6HR MAX TEMP:  50; 6HR PCP:  0.04;

SAINT JOHNS    PTCLDY    45  33  63 W17G29    29.68F
6HR MIN TEMP:  44; 6HR MAX TEMP:  55;

SHOW LOW       LGT RAIN  32  32 100 SW18G24   29.71F WCI  20
$$

AZZ023-240100-
GREATER PHOENIX AREA

CITY           SKY/WX    TMP DP  RH WIND       PRES   REMARKS
PHOENIX        CLOUDY    57  47  69 NW7       29.75S
6HR MIN TEMP:  56; 6HR MAX TEMP:  63;

BUCKEYE        MOCLDY    57  39  51 W9        29.77S
GLENDALE       RAIN      55  55 100 W8        29.79R
LUKE AFB       MOCLDY    55  51  86 SE3       29.75F
6HR MIN TEMP:  54; 6HR MAX TEMP:  58; 6HR PCP:  0.12;

DEER VALLEY    CLOUDY    52  49  89 NW7       29.76F THUNDER
6HR MIN TEMP:  51; 6HR MAX TEMP:  54; 6HR PCP:  0.16;

SCOTTSDALE     CLOUDY    53  48  83 VRB3      29.78S
6HR MIN TEMP:  52; 6HR MAX TEMP:  60; 6HR PCP:  0.07;

MESA-FALCON    CLOUDY   N/A N/A N/A N12       29.74S
MESA-GATEWAY   MOCLDY    57  46  67 NW5       29.76F
CHANDLER       MOCLDY    59  45  58 N8        29.75F
$$

AZZ027-028-240100-
SOUTHWEST MARICOPA COUNTY AND PINAL COUNTY

CITY           SKY/WX    TMP DP  RH WIND       PRES   REMARKS
CASA GRANDE    LGT RAIN  54  51  90 SW7       29.77F
6HR MIN TEMP:  53; 6HR MAX TEMP:  61; 6HR PCP:  0.21;

GILA BEND      MOCLDY    62  40  45 W12       29.75R
6HR MIN TEMP:  62; 6HR MAX TEMP:  65;

$$

AZZ503-504-507>509-240100-
SOUTHEAST ARIZONA

CITY           SKY/WX    TMP DP  RH WIND       PRES   REMARKS
TUCSON         MOCLDY    63  40  42 SW15      29.81F
6HR MIN TEMP:  63; 6HR MAX TEMP:  69;

DAVIS-MONTHAN  CLOUDY    62  39  42 W16G25    29.80F
6HR MIN TEMP:  62; 6HR MAX TEMP:  68;

RYAN FIELD     CLEAR    N/A N/A N/A SW25G31   29.81F
NOGALES        PTCLDY    59  41  51 SW22G29   29.84F
6HR MIN TEMP:  59; 6HR MAX TEMP:  65;

SIERRA VISTA   CLEAR     56  35  44 SW17G24   29.84F
6HR MIN TEMP:  56; 6HR MAX TEMP:  62;

DOUGLAS        CLEAR     62  34  35 SW21G32   29.83F
6HR MIN TEMP:  59; 6HR MAX TEMP:  67;

SAFFORD        PTCLDY    62  39  42 W14       29.72F
6HR MIN TEMP:  57; 6HR MAX TEMP:  69;

$$

AZZ020-021-025-026-031-240100-
SOUTHWEST ARIZONA

CITY           SKY/WX    TMP DP  RH WIND       PRES   REMARKS
YUMA           LGT RAIN  58  39  49 NW17G25   29.80S
6HR MIN TEMP:  58; 6HR MAX TEMP:  66; 6HR PCP: TRACE;

$$

CAZ031-033-041-043-047-048-061-240100-
SOUTHERN CALIFORNIA

CITY           SKY/WX    TMP DP  RH WIND       PRES   REMARKS
DOWNTOWN L.A.  MOSUNNY   56  42  59 W7        29.82F
6HR MIN TEMP:  49; 6HR MAX TEMP:  58; 6HR PCP:  0.13;

L.A. AIRPORT   MOSUNNY   53  43  68 W24       29.83S
6HR MIN TEMP:  50; 6HR MAX TEMP:  56; 6HR PCP:  0.13;

SAN DIEGO      CLOUDY    54  44  69 W10       29.89F
6HR MIN TEMP:  53; 6HR MAX TEMP:  58; 6HR PCP:  0.06;

BURBANK        CLOUDY    53  37  54 W14       29.81S
6HR MIN TEMP:  46; 6HR MAX TEMP:  53; 6HR PCP:  0.12;

ONTARIO        PTSUNNY   48  41  76 SW9       29.82F
6HR MIN TEMP:  43; 6HR MAX TEMP:  49; 6HR PCP:  0.55;

RIVERSIDE      CLOUDY    49  44  83 SW5       29.83
6HR MIN TEMP:  46; 6HR MAX TEMP:  52; 6HR PCP:  0.02;

PALM SPRINGS   CLOUDY    49  41  74 N15G24    29.79F
6HR MIN TEMP:  49; 6HR MAX TEMP:  55; 6HR PCP:  0.08;

EL CENTRO NAS  PTSUNNY   56  39  53 W18       29.85R
6HR MIN TEMP:  56; 6HR MAX TEMP:  64;

IMPERIAL       CLOUDY    55  42  61 NW15G21   29.82R
6HR MIN TEMP:  55; 6HR MAX TEMP:  63; 6HR PCP: TRACE;

BLYTHE         PTSUNNY   60  38  43 W20G29    29.77F
6HR MIN TEMP:  59; 6HR MAX TEMP:  64;

NEEDLES        MOCLDY    57  39  51 SW9       29.74S
6HR MIN TEMP:  57; 6HR MAX TEMP:  63; 6HR PCP: TRACE;

$$

NVZ020-UTZ003-240100-
SOUTHERN NEVADA-UTAH

CITY           SKY/WX    TMP DP  RH WIND       PRES   REMARKS
LAS VEGAS      MOCLDY    48  31  51 SW17      29.65F
6HR MIN TEMP:  47; 6HR MAX TEMP:  51;

SALT LAKE CITY LGT SNOW  33  32  96 CALM      29.56R FOG
6HR MIN TEMP:  33; 6HR MAX TEMP:  40; 6HR PCP:  0.11;

$$

NMZ009-TXZ055-240100-
NEW MEXICO-WEST TEXAS

CITY           SKY/WX    TMP DP  RH WIND       PRES   REMARKS
ALBUQUERQUE    PTCLDY    57  20  23 W29G45    29.71R
6HR MIN TEMP:  47; 6HR MAX TEMP:  60;

EL PASO        PTCLDY    66  24  20 SW8       29.80F
6HR MIN TEMP:  53; 6HR MAX TEMP:  68;

$$


........................KEY........................
SKY/WX - SKY CONDITION/WEATHER
TMP    - TEMPERATURE IN FAHRENHEIT
DP     - DEW POINT IN FAHRENHEIT
RH     - RELATIVE HUMIDITY IN PERCENT
WIND   - DIRECTION AND SPEED IN MILES PER HOUR (MPH)
VRB    - VARIABLE WIND DIRECTION
PRES   - MEAN SEA LEVEL PRESSURE IN INCHES OF MERCURY
         F - FALLING PRESSURE   R - RISING PRESSURE
         S - STEADY PRESSURE
VSB    - VISIBILITY IN MILES
HX     - HEAT INDEX IN FAHRENHEIT
WCI    - WIND CHILL INDEX IN FAHRENHEIT
TC     - TEMPERATURE IN CELSIUS WHICH IS ALSO KNOWN AS
         TEMPERATURE IN CENTIGRADE
AFB    - AIR FORCE BASE
         LUKE AFB IS LUKE AIR FORCE BASE
         DAVIS-MONTHAN IS DAVIS-MONTHAN AIR FORCE BASE
NAS    - NAVAL AIR STATION
         EL CENTRO NAS IS EL CENTRO NAVAL AIR STATION
N/A    - NOT AVAILABLE





USA.gov is the U.S. government's official web portal to all federal, state and local government web resources and services.